Погода в Сурабае

Индонезия     7°16′27″S   112°44′06″E
темп.,
°C
ветер,
м/с
пор.,
м/с
влажн.,
%
обл.,
%
осадки,
мм/ч
давл.,
гПа
погр.,
м
2 марта, вт
вт201:00+27сз127947 0.3 1010215
04:00+26зюз238263 0.0 1009174
07:00+27з248031 0.0 1010293
10:00+31зсз34580 0.0 1011876
13:00+33ссз45501 0.1 10091406
16:00+31сз466032 1.7 1008986
19:00+28сз467235 3.4 1010420
22:00+27зсз367774 0.0 1012378
3 марта, ср
ср301:00+26з348179 0.0 1010256
04:00+26з387959 0.0 1009421
07:00+26з357946 0.0 1011345
10:00+32ююз12557 0.0 1011734
13:00+34ссз225018 0.0 10081367
16:00+30сз456741 5.3 1007660
19:00+27ссз247271 12.4 1011311
22:00+27ссз2472100 1.5 1012421
4 марта, чт
чт401:00+26зсз2378100 1.6 1011282
04:00+26з3581100 0.0 1010287
07:00+26з4680100 0.0 1012308
10:00+31з4560100 0.0 1012813
13:00+33зсз445359 0.0 10091259
16:00+31ссз336353 1.6 1008735
19:00+28зюз237376 11.6 1011301
22:00+27всв2369100 2.1 1012194
5 марта, пт
пт501:00+26ссв0172100 2.3 1010208
04:00+26зсз1276100 0.0 1010185
07:00+26зюз1275100 0.1 1011188
10:00+31юз1152100 0.0 1011813
13:00+34зсз0145100 0.0 10091218
16:00+32св125682 0.3 1008545
19:00+28св237192 1.4 1010486
22:00+27св127396 0.1 1011378
6 марта, сб
сб601:00+27зюз007490 0.1 1010355
04:00+26юз127895 0.0 1009228
07:00+27зюз117570 0.0 1011351
10:00+32зсз01573 0.4 1011892
13:00+32ссв335813 1.8 10081048
16:00+30ссз446343 6.6 1008854
19:00+28ссз237263 9.9 1010363
22:00+27зюз2274100 0.3 1011262